sat.trackr.live / text

‹ back to catalog

SVOM

NORAD 60089 · 2024-116B

PAYLOAD ACTIVE UNKNOWN

§ Identity

Operator
Country
PRC
Launch date
2024-06-22
Launch site
XICLF
Launch vehicle
Mass (kg)
RCS (m²)

External: N2YO · Heavens-Above · Gunter

§ Orbital elements

Epoch: 2026-09-22T23:28:11.451648Z

Period
97.05 min
Inclination
28.9951°
Eccentricity
0.0004931
Mean motion
14.83715002 rev/d
Perigee alt
614.2 km
Apogee alt
621.1 km
Semi-major
6,995.8 km
B*
1.0132e-4
RAAN
219.3659°
Arg perigee
315.2774°
Mean anomaly
44.7422°
Rev number
12,213

§ Raw data

SVOM1 60089U 24116B   26265.97791032  .00000984  00000+0  10132-3 0  99962 60089  28.9951 219.3659 0004931 315.2774  44.7422 14.83715002122133

JSON: /api/v1/satellites/60089 · /tle

For live sub-satellite position, see the globe view (requires WebGL).

§ Visibility from observer

Set your observer location to see the next 7 days of passes ≥ 10°. The values pass through the URL so the page stays shareable.

No JS? Fill the form by hand. The geolocation button needs JavaScript.

§ Radio — SatNOGS DB

ModeDescriptionDownlinkUplink
FM Mode S - S-Band Transmitter 2.207 GHz
FM Mode V - Transmitter 1 137.710 MHz
FM Mode V - Transmitter 2 137.720 MHz
FM Mode V - Transmitter 3 137.730 MHz
FM Mode V - Transmitter 4 137.740 MHz
FM Mode V - Transmitter 5 137.750 MHz
FM Mode V - Transmitter 6 137.760 MHz
FM Mode V - Transmitter 7 137.770 MHz
FM Mode V - Transmitter 8 137.780 MHz

9 transmitters · refreshed weekly from db.satnogs.org